Salt Lake City, UT

4:09 PM MST on January 16, 2017 (GMT -0700)
Salt Lake City International

Weather History for KSLC - March, 2014

Change the Weather History Date:

Friday, March 21, 2014

  Actual Average Record
Temperature  
Mean Temperature 45 °F 45 °F  
Max Temperature 54 °F 55 °F 74 °F (1910)
Min Temperature 35 °F 35 °F 14 °F (1948)
Degree Days  
Heating Degree Days 20 20  
Month to date heating degree days 341 474  
Since 1 July heating degree days 4328 4730  
Cooling Degree Days 0 0  
Month to date cooling degree days 0 0  
Year to date cooling degree days 0 0  
Moisture  
Dew Point 19 °F    
Average Humidity 36    
Maximum Humidity 51    
Minimum Humidity 21    
Precipitation  
Precipitation 0.00 in 0.06 in 0.71 in (1980)
Month to date precipitation 0.35 1.15  
Year to date precipitation 3.12 3.65  
Snow  
Snow 0.00 in 0.20 in 6.40 in (1980)
Month to date snowfall T 4.6  
Since 1 July snowfall 35.0 50.0  
Snow Depth 0.00 in    
Sea Level Pressure  
Sea Level Pressure 29.98 in    
Wind  
Wind Speed 7 mph (NW)    
Max Wind Speed 16 mph    
Max Gust Speed 21 mph    
Visibility 10 miles    
Events      
T = Trace of Precipitation, MM = Missing Value Source: NWS Daily Summary

Daily Weather History Graph

Daily Weather History Graph

Search for Another Location

Airport or City:

Trip Planner

Search our weather history database for the weather conditions in past years. The results will help you decide how hot, cold, wet, or windy it might be!

Date:

Astronomy

Mar. 21, 2014 Rise Set
Actual Time 7:29 AM MDT 7:41 PM MDT
Civil Twilight 7:02 AM MDT 8:08 PM MDT
Nautical Twilight 6:30 AM MDT 8:40 PM MDT
Astronomical Twilight 5:57 AM MDT 9:13 PM MDT
Moon 12:05 AM MDT (3/21) 10:22 AM MDT (3/21)
Length of Visible Light 13h 06m
Length of Day
12h 11m
Waning Gibbous, 75% of the Moon is Illuminated
Mar 21
Waning Gibbous
Mar 23
Last Quarter
Mar 30
New
Apr 7
First Quarter
Apr 15
Full

Hourly Weather History & Observations

Time (MDT) Temp. Windchill Dew Point Humidity Pressure Visibility Wind Dir Wind Speed Gust Speed Precip Events Conditions
12:53 AM 46.0 °F 40.6 °F 27.0 °F 47% 29.94 in 10.0 mi WNW 11.5 mph - N/A   Partly Cloudy
1:53 AM 46.9 °F - 24.1 °F 41% 29.95 in 10.0 mi NW 13.8 mph - N/A   Partly Cloudy
2:53 AM 44.1 °F 38.6 °F 23.0 °F 43% 29.98 in 10.0 mi NNW 10.4 mph - N/A   Partly Cloudy
3:53 AM 42.1 °F 35.2 °F 21.9 °F 45% 29.98 in 10.0 mi NNW 12.7 mph - N/A   Partly Cloudy
4:53 AM 37.9 °F 33.5 °F 19.9 °F 48% 30.00 in 10.0 mi North 5.8 mph - N/A   Partly Cloudy
5:53 AM 37.9 °F 33.5 °F 18.0 °F 45% 30.00 in 10.0 mi NNW 5.8 mph - N/A   Partly Cloudy
6:53 AM 35.1 °F 31.0 °F 19.0 °F 52% 30.03 in 10.0 mi NNW 4.6 mph - N/A   Partly Cloudy
7:53 AM 37.9 °F 32.7 °F 16.0 °F 41% 30.04 in 10.0 mi NW 6.9 mph - N/A   Scattered Clouds
8:53 AM 39.9 °F 36.7 °F 15.1 °F 36% 30.05 in 10.0 mi WNW 4.6 mph - N/A   Scattered Clouds
9:53 AM 43.0 °F 39.5 °F 14.0 °F 31% 30.06 in 10.0 mi NNW 5.8 mph - N/A   Scattered Clouds
10:53 AM 46.0 °F - 15.1 °F 29% 30.06 in 10.0 mi Calm Calm - N/A   Scattered Clouds
11:53 AM 48.9 °F - 12.9 °F 24% 30.04 in 10.0 mi Variable 6.9 mph - N/A   Scattered Clouds
12:53 PM 51.1 °F - 12.9 °F 22% 30.03 in 10.0 mi NW 6.9 mph - N/A   Mostly Cloudy
1:53 PM 53.1 °F - 12.9 °F 20% 30.00 in 10.0 mi Variable 3.5 mph - N/A   Mostly Cloudy
2:53 PM 52.0 °F - 15.1 °F 23% 29.98 in 10.0 mi North 3.5 mph - N/A   Mostly Cloudy
3:53 PM 52.0 °F - 17.1 °F 25% 29.96 in 10.0 mi NW 8.1 mph - N/A   Mostly Cloudy
4:53 PM 52.0 °F - 17.1 °F 25% 29.95 in 10.0 mi WNW 9.2 mph - N/A   Mostly Cloudy
5:53 PM 51.1 °F - 19.0 °F 28% 29.94 in 10.0 mi West 9.2 mph - N/A   Mostly Cloudy
6:53 PM 48.9 °F - 19.9 °F 32% 29.94 in 10.0 mi West 8.1 mph - N/A   Mostly Cloudy
7:53 PM 46.9 °F - 21.0 °F 36% 29.93 in 10.0 mi West 6.9 mph - N/A   Overcast
8:53 PM 48.0 °F - 21.0 °F 34% 29.93 in 10.0 mi WNW 8.1 mph - N/A   Mostly Cloudy
9:53 PM 46.9 °F - 21.9 °F 37% 29.94 in 10.0 mi NW 5.8 mph - N/A   Mostly Cloudy
10:53 PM 45.0 °F 43.5 °F 25.0 °F 46% 29.93 in 10.0 mi North 3.5 mph - N/A   Mostly Cloudy
11:53 PM 45.0 °F - 27.0 °F 49% 29.93 in 10.0 mi Calm Calm - N/A   Overcast